[[{"header":{"parameterUnit":"m.s-1","parameterCategory":1,"la1":30.2991,"la2":30.254,"lo1":-89.0895,"lo2":-89.0444,"dy":0.0017,"dx":0.0017,"nx":28,"ny":28,"refTime":"2024-07-07T09:00:00:Z","depth":0,"parameterNumber":2,"parameterNumberName":"U-component_of_WINDS"},"data":[0,0,0,0,0,0,0,0,0,0,0,0,0,0,0,0,0,0,0,0,0,0,0,0,0,0,0,0,0,0,0,0,0,0,0,0,0,0,0,0,0,0,0,0,0,0,0,0,0,0,0,0,0,0,0,0,0,0,-1.0309,-1.0309,0,-1.0286,-1.0286,-1.0286,-1.0255,-1.0254,-1.0254,-1.0253,-1.0229,-1.0229,-1.0229,0,0,0,0,0,0,0,0,0,0,0,0,0,-1.0326,-1.0326,-1.0309,-1.0309,-1.0309,-1.0286,-1.0286,-1.0286,-1.0255,-1.0254,-1.0253,-1.0253,-1.0229,-1.0229,-1.0229,0,0,0,0,0,0,0,0,0,0,0,0,0,-1.0313,-1.0326,-1.0309,-1.0291,-1.0289,-1.0286,-1.0286,-1.0286,-1.0255,-1.0254,-1.0253,-1.0252,-1.0229,-1.0229,-1.0229,-1.0243,0,0,-1.0228,-1.0228,0,0,0,0,0,0,0,0,-1.0314,-1.0312,-1.0294,-1.0292,-1.029,-1.0273,-1.0283,-1.0271,-1.0255,-1.0268,-1.0253,-1.0252,-1.0244,-1.0243,-1.024,-1.0242,-1.0241,-1.0228,-1.0228,-1.0228,-1.0228,0,0,0,0,0,0,0,-1.0315,-1.0313,-1.03,-1.0293,-1.0291,-1.0283,-1.0281,-1.0281,-1.0261,-1.0266,-1.0264,-1.0262,-1.0243,-1.024,-1.0239,-1.0241,-1.0228,-1.0228,-1.0228,-1.0228,-1.0254,-1.0255,0,0,0,0,0,0,-1.0318,-1.0314,-1.0301,-1.03,-1.03,-1.0284,-1.0281,-1.0279,-1.0261,-1.0257,-1.0263,-1.026,-1.0241,-1.024,-1.0238,-1.0255,-1.0228,-1.0228,-1.0228,-1.0253,-1.0254,-1.0255,0,0,0,0,0,0,-1.0319,-1.0317,-1.0302,-1.0306,-1.0304,-1.0284,-1.0283,-1.0279,-1.0276,-1.0258,-1.0254,-1.0264,-1.0241,-1.0239,-1.0243,-1.0253,-1.0228,-1.0228,-1.0252,-1.0254,-1.0255,-1.0287,0,0,0,0,0,0,-1.0319,-1.0318,-1.0323,-1.0307,-1.0303,-1.0306,-1.0283,-1.0279,-1.0276,-1.0273,-1.0258,-1.0254,-1.024,-1.0243,-1.0242,-1.0253,-1.0227,-1.0251,-1.0253,-1.0254,-1.0285,-1.0289,-1.0293,0,0,0,0,0,-1.032,-1.0333,-1.0323,-1.0322,-1.031,-1.0307,-1.0305,-1.0288,-1.0277,-1.0282,-1.027,-1.0255,-1.0252,-1.0244,-1.0243,-1.0253,-1.0251,-1.0253,-1.0254,-1.0283,-1.0288,-1.0292,0,0,0,0,0,0,-1.0351,-1.033,-1.032,-1.0327,-1.0319,-1.0302,-1.0308,-1.0294,-1.0289,-1.0287,-1.0266,-1.0263,-1.0269,-1.0261,-1.0252,-1.0266,-1.0249,-1.0251,-1.0271,-1.0276,-1.028,-1.0282,-1.0227,0,0,0,0,0,-1.0359,-1.0358,-1.034,-1.0349,-1.0345,-1.0327,-1.0326,-1.0313,-1.0304,-1.03,-1.0289,-1.028,-1.0278,-1.0276,-1.0273,-1.0283,-1.028,-1.029,-1.0294,-1.0297,-1.0299,-1.0305,-1.0309,-1.0261,-1.0261,-1.0261,0,0,-1.0375,-1.0363,-1.0364,-1.0355,-1.0347,-1.0347,-1.0325,-1.0326,-1.0326,-1.0301,-1.0304,-1.0295,-1.0284,-1.0292,-1.0294,-1.0285,-1.0311,-1.03,-1.0302,-1.0302,-1.0307,-1.0312,-1.0316,-1.0263,-1.0262,-1.0262,0,0,-1.0404,-1.0395,-1.0401,-1.0394,-1.0383,-1.0371,-1.0372,-1.0357,-1.035,-1.0353,-1.0334,-1.0334,-1.033,-1.0323,-1.0319,-1.0346,-1.0332,-1.0346,-1.0367,-1.0372,-1.0376,-1.0379,-1.0389,-1.0393,-1.0348,-1.0348,-1.0348,0,-1.0425,-1.0424,-1.0406,-1.0409,-1.0405,-1.0382,-1.0389,-1.0383,-1.0371,-1.0369,-1.0359,-1.0354,-1.0345,-1.0351,-1.0358,-1.0355,-1.0356,-1.0348,-1.0377,-1.038,-1.0383,-1.0392,-1.0396,-1.0349,-1.0349,-1.0349,-1.0349,0,-1.0451,-1.0451,-1.0458,-1.0447,-1.0444,-1.0449,-1.0431,-1.0431,-1.0419,-1.0408,-1.0412,-1.04,-1.0394,-1.0395,-1.0383,-1.0399,-1.0394,-1.0381,-1.0363,-1.0389,-1.0398,-1.0401,-1.0352,-1.0351,-1.0351,-1.035,0,0,-1.0499,-1.0479,-1.0481,-1.0476,-1.0462,-1.0462,-1.0466,-1.046,-1.046,-1.0453,-1.0456,-1.0453,-1.0441,-1.0436,-1.0424,-1.0429,-1.0452,-1.0415,-1.0414,-1.0423,-1.0469,-1.048,-1.0484,-1.0442,-1.0443,-1.0443,-1.047,0,-1.0526,-1.0531,-1.0515,-1.0524,-1.0524,-1.0503,-1.0506,-1.0498,-1.0488,-1.0487,-1.0476,-1.0474,-1.0458,-1.0456,-1.0459,-1.0448,-1.0461,-1.0446,-1.0445,-1.0445,-1.0448,-1.0488,-1.0499,-1.0525,-1.0473,-1.0474,-1.0474,0,-1.0558,-1.0552,-1.0562,-1.0548,-1.0547,-1.055,-1.0544,-1.0543,-1.0534,-1.0526,-1.0522,-1.0507,-1.051,-1.0493,-1.0497,-1.0487,-1.0485,-1.048,-1.048,-1.048,-1.0462,-1.0489,-1.0533,-1.0537,-1.0479,-1.0479,-1.0479,0,-1.0593,-1.0588,-1.0593,-1.0589,-1.0573,-1.0575,-1.0569,-1.0558,-1.0556,-1.0551,-1.0549,-1.0544,-1.0542,-1.0538,-1.0523,-1.0512,-1.0528,-1.051,-1.0523,-1.0523,-1.0527,-1.0527,-1.0572,-1.0526,-1.0526,-1.0526,-1.0526,0,-1.0624,-1.0631,-1.0608,-1.0611,-1.0618,-1.06,-1.0607,-1.0598,-1.0589,-1.0591,-1.0572,-1.0573,-1.0553,-1.0552,-1.054,-1.0545,-1.0544,-1.0538,-1.0535,-1.054,-1.0541,-1.0539,-1.0537,-1.0527,-1.0526,-1.0526,-1.0526,0,-1.0665,-1.0649,-1.0654,-1.0638,-1.0634,-1.064,-1.0626,-1.0629,-1.0618,-1.062,-1.0619,-1.0602,-1.06,-1.0584,-1.0579,-1.0571,-1.0581,-1.0574,-1.0584,-1.0582,-1.0596,-1.0595,-1.0641,-1.0647,-1.0597,-1.0597,-1.0598,0,-1.0686,-1.0691,-1.0676,-1.0675,-1.0669,-1.0669,-1.0667,-1.0648,-1.0647,-1.0637,-1.0641,-1.0637,-1.0634,-1.0632,-1.0619,-1.0615,-1.0609,-1.0625,-1.0608,-1.0613,-1.061,-1.061,-1.061,-1.0629,-1.063,-1.063,-1.063,0,-1.0727,-1.0719,-1.0716,-1.0711,-1.0709,-1.0704,-1.0698,-1.0699,-1.0679,-1.0678,-1.0676,-1.0674,-1.0669,-1.0666,-1.066,-1.0653,-1.0639,-1.0636,-1.0639,-1.0644,-1.065,-1.0648,-1.0595,-1.0635,-1.0635,-1.0634,-1.0634,-1.0634,-1.0759,-1.0762,-1.0752,-1.075,-1.0743,-1.0738,-1.074,-1.0729,-1.0727,-1.0722,-1.0711,-1.0711,-1.0702,-1.0692,-1.0686,-1.0686,-1.0678,-1.0682,-1.0683,-1.0684,-1.0687,-1.065,-1.0685,-1.0685,-1.0685,-1.0684,-1.0684,0,-1.0798,-1.0791,-1.0789,-1.0781,-1.078,-1.0766,-1.0759,-1.0759,-1.0759,-1.0751,-1.0748,-1.0747,-1.0744,-1.0731,-1.0727,-1.0729,-1.0723,-1.0729,-1.0729,-1.0728,-1.0695,-1.0693,-1.0735,-1.0735,-1.0734,-1.0734,-1.0734,-1.0734,-1.0819,-1.0824,-1.0815,-1.0817,-1.081,-1.0809,-1.0807,-1.0802,-1.0796,-1.0795,-1.0792,-1.0784,-1.0774,-1.077,-1.0767,-1.0763,-1.0763,-1.0771,-1.0765,-1.0735,-1.073,-1.0725,-1.0724,-1.0771,-1.0771,-1.0799,-1.0799,-1.0799]},{"header":{"parameterUnit":"m.s-1","parameterCategory":1,"la1":30.2991,"la2":30.254,"lo1":-89.0895,"lo2":-89.0444,"dy":0.0017,"dx":0.0017,"nx":28,"ny":28,"refTime":"2024-07-07T09:00:00:Z","depth":0,"parameterNumber":3,"parameterNumberName":"V-component_of_WINDS"},"data":[0,0,0,0,0,0,0,0,0,0,0,0,0,0,0,0,0,0,0,0,0,0,0,0,0,0,0,0,0,0,0,0,0,0,0,0,0,0,0,0,0,0,0,0,0,0,0,0,0,0,0,0,0,0,0,0,0,0,4.4128,4.4128,0,4.4111,4.4111,4.411,4.4069,4.4068,4.4067,4.4066,4.4044,4.4044,4.4044,0,0,0,0,0,0,0,0,0,0,0,0,0,4.4122,4.4122,4.4128,4.4128,4.4127,4.4111,4.4111,4.411,4.4069,4.4068,4.4067,4.4066,4.4044,4.4044,4.4044,0,0,0,0,0,0,0,0,0,0,0,0,0,4.4117,4.4123,4.4128,4.4105,4.4103,4.4111,4.4111,4.411,4.4069,4.4068,4.4066,4.4065,4.4044,4.4044,4.4044,4.4072,0,0,4.4045,4.4045,0,0,0,0,0,0,0,0,4.4117,4.4117,4.4108,4.4106,4.4104,4.4091,4.41,4.4097,4.4069,4.4082,4.4066,4.4064,4.406,4.4059,4.4058,4.4071,4.407,4.4045,4.4045,4.4046,4.4046,0,0,0,0,0,0,0,4.4117,4.4117,4.4121,4.4108,4.4106,4.4095,4.4092,4.41,4.4078,4.408,4.4077,4.4076,4.4059,4.4058,4.4058,4.407,4.4045,4.4046,4.4046,4.4046,4.4107,4.4108,0,0,0,0,0,0,4.4122,4.4118,4.4121,4.412,4.4108,4.4096,4.4093,4.4096,4.4078,4.4074,4.4077,4.4074,4.4058,4.4057,4.4057,4.409,4.4046,4.4046,4.4046,4.4106,4.4107,4.4109,0,0,0,0,0,0,4.4122,4.4122,4.4122,4.4118,4.4118,4.4097,4.4101,4.4096,4.4096,4.4076,4.4071,4.4081,4.4057,4.4056,4.4069,4.4088,4.4046,4.4046,4.4104,4.4106,4.4108,4.4155,0,0,0,0,0,0,4.4122,4.4123,4.4133,4.4119,4.4118,4.4136,4.4102,4.4097,4.4097,4.4093,4.4078,4.4074,4.4056,4.4069,4.407,4.4088,4.4047,4.4102,4.4105,4.4107,4.4152,4.4159,4.4165,0,0,0,0,0,4.4122,4.4146,4.4134,4.4135,4.4131,4.4137,4.4137,4.4117,4.4099,4.411,4.4097,4.4075,4.4086,4.4071,4.4071,4.409,4.4101,4.4104,4.4107,4.4149,4.4157,4.4165,0,0,0,0,0,0,4.416,4.4143,4.413,4.4151,4.4146,4.413,4.4143,4.4126,4.4125,4.4121,4.4095,4.4092,4.4109,4.41,4.4084,4.4117,4.409,4.4094,4.4122,4.413,4.4136,4.4137,4.4047,0,0,0,0,0,4.4172,4.4179,4.4163,4.4183,4.4182,4.4163,4.4165,4.415,4.4144,4.4141,4.4129,4.4122,4.4125,4.4127,4.4127,4.4151,4.4147,4.4164,4.417,4.4176,4.4179,4.4192,4.42,4.4119,4.4119,4.4119,0,0,4.4194,4.4186,4.4192,4.4191,4.4185,4.4193,4.4161,4.417,4.4176,4.4142,4.4154,4.4146,4.4137,4.4156,4.4164,4.4149,4.4201,4.418,4.4184,4.4184,4.4197,4.4204,4.4211,4.4122,4.4121,4.4121,0,0,4.424,4.4234,4.4251,4.4247,4.4241,4.4228,4.4233,4.422,4.4214,4.4227,4.4202,4.4208,4.4212,4.4208,4.4206,4.4253,4.4233,4.4254,4.4287,4.4301,4.4307,4.4313,4.4331,4.4338,4.4258,4.4258,4.4258,0,4.4268,4.428,4.4261,4.4273,4.4274,4.4246,4.4263,4.4259,4.4253,4.4254,4.4238,4.4245,4.4237,4.4256,4.4268,4.4267,4.4271,4.4255,4.4308,4.4314,4.4318,4.4335,4.4342,4.426,4.426,4.426,4.4259,0,4.4316,4.4325,4.434,4.4337,4.4339,4.4353,4.4336,4.434,4.4327,4.4316,4.4331,4.432,4.432,4.4323,4.4308,4.4341,4.4332,4.4313,4.4285,4.4329,4.4345,4.4351,4.4264,4.4263,4.4262,4.4262,0,0,4.4384,4.4373,4.4378,4.4378,4.437,4.4376,4.439,4.4392,4.4397,4.4393,4.4404,4.441,4.4394,4.4392,4.4376,4.4388,4.4429,4.4368,4.4367,4.438,4.4466,4.4481,4.4488,4.4416,4.4417,4.4418,4.4467,0,4.4428,4.4452,4.4436,4.4462,4.4471,4.4446,4.4458,4.4454,4.4446,4.4451,4.4441,4.4446,4.4423,4.4422,4.4433,4.4422,4.4446,4.4418,4.4426,4.4426,4.4429,4.4496,4.4511,4.4558,4.4472,4.4473,4.4474,0,4.4481,4.4484,4.4512,4.4505,4.4508,4.4519,4.4521,4.4527,4.4523,4.4515,4.4516,4.4498,4.451,4.4484,4.4502,4.4483,4.4486,4.4481,4.4482,4.4482,4.4453,4.4499,4.4572,4.4579,4.4483,4.4483,4.4482,0,4.453,4.454,4.4558,4.4559,4.455,4.4559,4.4556,4.4551,4.4554,4.4555,4.4557,4.4559,4.456,4.4561,4.4545,4.4527,4.4565,4.4537,4.456,4.456,4.4568,4.4568,4.4644,4.4569,4.4569,4.4569,4.4569,0,4.4581,4.4599,4.458,4.4592,4.4612,4.4594,4.4614,4.4608,4.4604,4.4614,4.4592,4.4601,4.4579,4.4586,4.4573,4.459,4.459,4.4585,4.4581,4.4587,4.4588,4.4588,4.4585,4.4571,4.4571,4.457,4.457,0,4.4637,4.4626,4.4645,4.4637,4.4635,4.4651,4.4644,4.4654,4.4645,4.4657,4.4659,4.4645,4.4652,4.4636,4.464,4.4632,4.4657,4.4648,4.4659,4.4657,4.4681,4.4679,4.476,4.477,4.4689,4.4689,4.469,0,4.4671,4.4685,4.468,4.4686,4.4685,4.4694,4.4698,4.4681,4.4686,4.4684,4.4695,4.4701,4.4705,4.4718,4.4707,4.4711,4.4702,4.473,4.4702,4.4709,4.4704,4.4704,4.4705,4.4736,4.4737,4.4737,4.4738,0,4.4732,4.4726,4.4733,4.474,4.4746,4.4749,4.475,4.4756,4.4739,4.4745,4.4754,4.4758,4.4764,4.4771,4.4773,4.4768,4.4751,4.4747,4.4753,4.4759,4.4766,4.4764,4.4676,4.4745,4.4745,4.4744,4.4744,4.4743,4.4778,4.4791,4.479,4.4799,4.48,4.4803,4.4813,4.4806,4.4814,4.4819,4.4809,4.482,4.4818,4.4819,4.4817,4.4826,4.4813,4.4821,4.4823,4.4825,4.483,4.4765,4.4826,4.4825,4.4825,4.4825,4.4825,0,4.4839,4.4839,4.4848,4.4852,4.486,4.4845,4.4847,4.4854,4.4865,4.4865,4.4871,4.4882,4.4889,4.488,4.4885,4.4894,4.4886,4.4896,4.4895,4.4895,4.484,4.4835,4.4903,4.4903,4.4903,4.4903,4.4903,4.4903,4.4872,4.4893,4.4888,4.4909,4.4907,4.492,4.4923,4.4925,4.4926,4.494,4.4946,4.4941,4.4938,4.4943,4.495,4.4947,4.495,4.4963,4.4957,4.4906,4.4899,4.4891,4.4887,4.4964,4.4964,4.5012,4.5012,4.5012]}]]